Location: Lachepaillet
(43.4918°N, 1.4874°W)
Time: 23:35:20
(UTC+00:00)

Meteor 2-20 Rocket - Pass Details

Date: 15 May 2026
Orbit: 872 x 1023 km, 82.5° (Epoch: 11 June)

Event Time Altitude Azimuth Distance (km) Brightness Sun altitude
Exits shadow 23:54:11 65° 104° (ESE) 961 4.3 -27.4°
Maximum altitude 23:54:20 66° 94° (E) 959 4.3 -27.4°
Drops below altitude 10° 23:59:59 10° 14° (NNE) 2,530 7.6 -27.4°
Sets 00:02:26 0° 12° (NNE) 3,474 8.6 -27.5°
